Location: Slanting_Bridge
(35.6330°N, 80.9830°W)
Time: 03:26:03
(UTC-05:00)

Amateur Radio Satellites - All Passes

Search period start: 05 December 2016 02:56
Search period end: 06 December 2016 02:56
Location: Slanting_Bridge, 35.6330°N, 80.9830°W

Satellite Date Start Highest point End Downlink Frequencies (MHz)
Time Altitude Azimuth
ITAMSAT 1 05 Dec 03:02:48 03:07:39 40° 99° (E) 03:12:28 435.822/435.867
SWISSCUBE 05 Dec 03:11:02 03:14:48 23° 264° (W) 03:18:35 437.505
BEESAT 05 Dec 03:15:11 03:18:59 23° 264° (W) 03:22:48 436.000
O/OREOS (USA 219) 05 Dec 03:22:12 03:26:04 29° 257° (WSW) 03:29:54 437.305
GONETS M04 05 Dec 03:28:18 03:32:32 14° 296° (WNW) 03:36:48
KKS-1 05 Dec 03:34:11 03:38:30 52° 74° (ENE) 03:42:52 437.445
PHONESAT 2.4 05 Dec 03:38:09 03:40:28 26° 1° (N) 03:42:48 2401.200-2431.200
ITUPSAT 1 05 Dec 03:44:05 03:46:01 12° 268° (W) 03:47:57 437.325
STARS 05 Dec 03:44:16 03:48:06 30° 70° (ENE) 03:51:57 437.465
Gurwin Techsat 1B 05 Dec 04:04:59 04:06:55 12° 298° (WNW) 04:08:51 435.225
AO-85 05 Dec 04:07:31 04:09:28 12° 313° (NW) 04:11:21 145.980
BEESAT 3 05 Dec 04:20:13 04:22:14 14° 109° (ESE) 04:24:15 437.485
CUBESAT XI-V 05 Dec 04:30:40 04:35:13 68° 76° (ENE) 04:39:47 437.345
MOZHAYETS 4 05 Dec 04:33:46 04:36:20 15° 267° (W) 04:38:53
ITAMSAT 1 05 Dec 04:42:57 04:46:49 22° 294° (WNW) 04:50:40 435.822/435.867
HORYU 2 05 Dec 04:44:09 04:46:32 14° 93° (E) 04:48:54 437.375
BEESAT 2 05 Dec 04:47:12 04:48:44 12° 108° (ESE) 04:50:17 435.950
AO-7 05 Dec 04:47:20 04:55:33 62° 292° (WNW) 05:03:45 29.400- 29.500
GOMX 1 05 Dec 05:02:18 05:05:38 16° 91° (E) 05:08:58 467.674
YUBILEINY 05 Dec 05:07:51 05:13:35 19° 67° (ENE) 05:19:18 435.215
PHONESAT 2.4 05 Dec 05:13:24 05:16:01 55° 18° (NNE) 05:18:37 2401.200-2431.200
KKS-1 05 Dec 05:13:37 05:15:20 12° 268° (W) 05:17:04 437.445
SO-50 05 Dec 05:14:57 05:19:09 37° 55° (NE) 05:23:18 436.795
BRITE-PL 05 Dec 05:18:24 05:23:46 56° 100° (E) 05:29:20 437.365/2234.400
STARS 05 Dec 05:21:05 05:24:26 21° 265° (W) 05:27:47 437.465
Cosmos 2491 05 Dec 05:35:07 05:38:52 13° 77° (ENE) 05:42:36 435.465 / 435.565
BEESAT 3 05 Dec 05:55:49 05:59:28 38° 304° (NW) 06:03:10 437.485
STRAND 1 05 Dec 06:02:35 06:06:34 23° 67° (ENE) 06:10:34 437.568
NOAA 18 05 Dec 06:07:23 06:11:29 21° 95° (E) 06:15:32 137.9125
CUTE-I 05 Dec 06:07:28 06:12:17 34° 98° (E) 06:17:04 437.470
LilacSat-2 05 Dec 06:11:00 06:14:32 37° 98° (E) 06:18:01 437.200
HORYU 2 05 Dec 06:19:04 06:23:16 43° 287° (WNW) 06:27:25 437.375
BEESAT 2 05 Dec 06:22:18 06:26:04 45° 303° (WNW) 06:29:54 435.950
RS-15 05 Dec 06:23:43 06:33:19 31° 103° (ESE) 06:43:15 29.354- 29.394
HO-68 05 Dec 06:32:26 06:33:30 10° 89° (E) 06:34:34 435.675
Cubesat XI-IV 05 Dec 06:32:42 06:38:00 60° 101° (E) 06:43:14 437.490
NOAA 15 05 Dec 06:33:44 06:39:01 70° 102° (ESE) 06:44:16 137.62
AIST 1 05 Dec 06:38:28 06:41:58 23° 76° (ENE) 06:45:26
GOMX 1 05 Dec 06:38:36 06:43:58 58° 286° (WNW) 06:49:19 467.674
AO-7 05 Dec 06:43:57 06:46:38 12° 311° (NW) 06:49:20 29.400- 29.500
CINEMA 3 05 Dec 06:46:12 06:49:05 16° 91° (E) 06:51:52 145.822/145.860
PHONESAT 2.4 05 Dec 06:49:01 06:51:07 21° 212° (SSW) 06:53:11 2401.200-2431.200
DOVE 4 05 Dec 06:54:56 07:00:16 90° 106° (ESE) 07:05:25 437.250
SO-50 05 Dec 06:56:10 06:59:18 19° 250° (WSW) 07:02:24 436.795
Cosmos 2504 05 Dec 06:57:39 07:06:05 48° 77° (ENE) 07:13:59 435.465 / 435.565
BRITE-PL 05 Dec 06:58:10 07:01:46 18° 293° (WNW) 07:05:28 437.365/2234.400
YUBILEINY 05 Dec 07:02:31 07:11:22 82° 266° (W) 07:20:12 435.215
CUTE 1.7 + AOD 2 05 Dec 07:12:48 07:15:30 16° 94° (E) 07:18:11 437.475
Cosmos 2491 05 Dec 07:25:28 07:34:16 84° 94° (E) 07:43:04 435.465 / 435.565
CANX-2 05 Dec 07:29:41 07:33:26 31° 97° (E) 07:37:12 2200.000
STRAND 1 05 Dec 07:40:48 07:45:31 36° 262° (W) 07:50:14 437.568
AAUSAT CUBESAT 2 05 Dec 07:42:51 07:44:16 11° 92° (E) 07:45:41 437.432
LilacSat-2 05 Dec 07:46:56 07:48:26 12° 292° (WNW) 07:49:56 437.200
NOAA 18 05 Dec 07:47:03 07:52:17 44° 290° (WNW) 07:57:28 137.9125
CUTE-I 05 Dec 07:47:48 07:52:08 26° 293° (WNW) 07:56:27 437.470
PRISM 05 Dec 07:53:53 07:56:34 17° 68° (ENE) 07:59:17 437.425
UWE-3 05 Dec 07:57:17 07:59:03 12° 92° (E) 08:00:47 435.000/436.395/437.385
SEEDS 05 Dec 07:57:18 08:01:12 37° 98° (E) 08:05:05 437.485
COMPASS 1 05 Dec 08:09:53 08:13:40 34° 98° (E) 08:17:28 437.405
Cubesat XI-IV 05 Dec 08:14:27 08:17:30 16° 297° (WNW) 08:20:32 437.490
HO-68 05 Dec 08:14:53 08:22:08 79° 105° (ESE) 08:29:19 435.675
NOAA 15 05 Dec 08:15:43 08:18:09 13° 298° (WNW) 08:20:34 137.62
AIST 1 05 Dec 08:15:52 08:19:27 25° 271° (W) 08:23:01
CINEMA 3 05 Dec 08:21:53 08:26:26 43° 287° (WNW) 08:30:46 145.822/145.860
RS-15 05 Dec 08:33:07 08:44:45 69° 303° (WNW) 08:57:02 29.354- 29.394
DOVE 4 05 Dec 08:36:19 08:37:04 10° 299° (WNW) 08:37:49 437.250
TIGRISAT 05 Dec 08:38:10 08:40:02 12° 65° (ENE) 08:41:55 435.000
ANTELSAT 05 Dec 08:38:56 08:41:12 13° 65° (ENE) 08:43:26 437.575/2403.000
ZACube-1 05 Dec 08:39:24 08:42:46 23° 95° (E) 08:46:06 437.345
AIST 2 05 Dec 08:39:45 08:43:49 67° 300° (WNW) 08:47:57 435.215
CUBEBUG 2 05 Dec 08:46:46 08:51:11 85° 102° (ESE) 08:55:26 437.445
FUNcube-1 05 Dec 08:47:34 08:51:07 26° 96° (E) 08:54:37 145.935
CUTE 1.7 + AOD 2 05 Dec 08:47:37 08:51:24 33° 288° (WNW) 08:55:11 437.475
Cosmos 2504 05 Dec 08:51:35 08:59:03 33° 275° (W) 09:06:12 435.465 / 435.565
YUBILEINY 05 Dec 09:03:09 09:06:41 13° 283° (WNW) 09:10:14 435.215
CANX-2 05 Dec 09:06:09 09:09:02 18° 291° (WNW) 09:11:57 2200.000
AAUSAT CUBESAT 2 05 Dec 09:15:58 09:19:56 46° 286° (WNW) 09:23:54 437.432
Oscar 11 05 Dec 09:19:00 09:23:16 64° 101° (E) 09:27:32 145.826/435.025
Cosmos 2491 05 Dec 09:26:39 09:32:08 18° 294° (WNW) 09:37:38 435.465 / 435.565
PRISM 05 Dec 09:28:01 09:31:36 30° 262° (W) 09:35:14 437.425
UWE-3 05 Dec 09:31:39 09:35:45 44° 286° (WNW) 09:39:44 435.000/436.395/437.385
SEEDS 05 Dec 09:34:06 09:36:33 15° 292° (WNW) 09:39:00 437.485
UNISAT 6 05 Dec 09:41:11 09:45:50 66° 75° (ENE) 09:50:28 437.425
COMPASS 1 05 Dec 09:46:18 09:48:55 16° 292° (WNW) 09:51:32 437.405
CUSAT 1 05 Dec 10:01:18 10:04:45 52° 279° (W) 10:07:34 437.405
HO-68 05 Dec 10:04:25 10:09:01 19° 301° (WNW) 10:13:37 435.675
TIGRISAT 05 Dec 10:11:31 10:16:10 62° 260° (W) 10:20:48 435.000
ANTELSAT 05 Dec 10:12:46 10:17:23 56° 260° (W) 10:21:59 437.575/2403.000
HUMSAT D 05 Dec 10:15:33 10:19:30 49° 100° (E) 10:23:26 437.325/437.525
ZACube-1 05 Dec 10:15:35 10:18:57 23° 290° (WNW) 10:22:15 437.345
DELFI C3 05 Dec 10:23:08 10:27:03 59° 284° (WNW) 10:30:57 145.870
FUNcube-1 05 Dec 10:24:04 10:27:11 20° 291° (WNW) 10:30:16 145.935
PCSat 05 Dec 10:30:59 10:34:03 16° 104° (ESE) 10:37:09 145.827
NANOSAT C BR1 05 Dec 10:32:32 10:35:47 22° 69° (ENE) 10:39:03 145.865
DANDE 05 Dec 10:35:50 10:41:04 82° 98° (E) 10:44:56 436.750
QB50P2 05 Dec 10:36:59 10:40:38 28° 71° (ENE) 10:44:19 145.880/145.840
POLYITAN 1 05 Dec 10:37:36 10:41:12 27° 71° (ENE) 10:44:50 437.675
JAS-2 05 Dec 10:41:32 10:48:03 57° 73° (ENE) 10:53:49 435.910
QB50P1 05 Dec 10:50:33 10:54:30 37° 72° (ENE) 10:58:28 145.935-145.965
RS-15 05 Dec 10:51:18 11:00:09 23° 331° (NNW) 11:09:15 29.354- 29.394
DUCHIFAT 1 05 Dec 10:54:31 10:58:23 35° 72° (ENE) 11:02:17 145.980
AO-85 05 Dec 10:58:40 11:02:02 26° 53° (NE) 11:05:19 145.980
POPSAT HIP 1 05 Dec 11:11:38 11:15:53 67° 76° (ENE) 11:20:09 437.405
ESTCUBE 1 05 Dec 11:13:50 11:17:47 29° 97° (E) 11:21:43 437.505/2401.250
UNISAT 6 05 Dec 11:22:08 11:22:53 10° 269° (W) 11:23:37 437.425
AISAT 05 Dec 11:25:18 11:28:03 16° 94° (E) 11:30:47 437.250
GONETS M04 05 Dec 11:39:51 11:48:02 43° 76° (ENE) 11:56:12
CUBEBUG 1 05 Dec 11:52:30 11:56:49 48° 100° (E) 12:01:05 437.445
Cosmos 2499 05 Dec 11:53:02 12:01:27 57° 79° (E) 12:09:13 435.465 / 435.565
HUMSAT D 05 Dec 11:53:25 11:54:38 11° 294° (WNW) 11:55:51 437.325/437.525
BUGSAT 1 05 Dec 11:54:46 11:58:56 68° 76° (ENE) 12:03:10 437.445
50 SAT 05 Dec 11:59:16 12:02:21 27° 97° (E) 12:05:27 437.505
VELOX 1 05 Dec 12:01:04 12:05:15 39° 99° (E) 12:09:25 145.980
Gurwin Techsat 1B 05 Dec 12:05:43 12:06:35 10° 61° (ENE) 12:07:27 435.225
NANOSAT C BR1 05 Dec 12:07:43 12:11:19 27° 263° (W) 12:14:58 145.865
PCSat 05 Dec 12:11:34 12:16:53 59° 299° (WNW) 12:22:15 145.827
Oscar 19 05 Dec 12:12:56 12:17:05 25° 68° (ENE) 12:21:14 437.125/150
QB50P2 05 Dec 12:13:11 12:16:23 20° 265° (W) 12:19:37 145.880/145.840
POLYITAN 1 05 Dec 12:13:38 12:16:56 22° 265° (W) 12:20:16 437.675
DX 1 05 Dec 12:17:33 12:21:25 30° 97° (E) 12:25:17 434.975-435.025
UKube-1 05 Dec 12:26:30 12:30:15 28° 97° (E) 12:33:56 .
QB50P1 05 Dec 12:27:52 12:30:23 15° 267° (W) 12:32:54 145.935-145.965
JAS-2 05 Dec 12:28:37 12:33:14 20° 265° (W) 12:37:32 435.910
DUCHIFAT 1 05 Dec 12:31:29 12:34:08 16° 266° (W) 12:36:48 145.980
JUGNU 05 Dec 12:35:43 12:39:14 16° 175° (S) 12:42:44 437.505
AO-85 05 Dec 12:39:22 12:42:13 20° 249° (WSW) 12:45:04 145.980
SPROUT 05 Dec 12:40:34 12:44:53 76° 102° (ESE) 12:49:08 437.525
ESTCUBE 1 05 Dec 12:50:55 12:54:24 22° 291° (WNW) 12:57:53 437.505/2401.250
AISAT 05 Dec 13:00:27 13:04:38 39° 288° (WNW) 13:08:46 437.250
RS-15 05 Dec 13:13:17 13:19:40 15° 8° (N) 13:26:03 29.354- 29.394
CUBEBUG 1 05 Dec 13:30:24 13:32:38 14° 294° (WNW) 13:34:51 437.445
50 SAT 05 Dec 13:33:26 13:35:23 14° 291° (WNW) 13:37:20 437.505
GONETS M04 05 Dec 13:36:56 13:44:37 37° 274° (W) 13:52:20
VELOX 1 05 Dec 13:38:30 13:41:22 17° 293° (WNW) 13:44:14 145.980
Gurwin Techsat 1B 05 Dec 13:40:25 13:45:43 89° 259° (W) 13:51:04 435.225
Cosmos 2499 05 Dec 13:47:15 13:53:52 26° 278° (W) 14:00:09 435.465 / 435.565
Oscar 19 05 Dec 13:51:38 13:56:12 33° 263° (W) 14:00:48 437.125/150
AO-7 05 Dec 13:51:56 13:58:42 29° 59° (ENE) 14:05:28 29.400- 29.500
DX 1 05 Dec 13:54:08 13:57:23 21° 292° (WNW) 14:00:38 434.975-435.025
M-CUBED/EXP-1 PRIME 05 Dec 13:55:58 13:58:29 14° 96° (E) 14:00:56 437.505
UKube-1 05 Dec 14:02:46 14:06:05 22° 291° (WNW) 14:09:24 .
TISAT 1 05 Dec 14:05:23 14:09:37 74° 284° (WNW) 14:13:47 437.305
ITUPSAT 1 05 Dec 14:07:37 14:10:54 18° 94° (E) 14:14:11 437.325
SRMSAT 05 Dec 14:13:42 14:16:29 13° 170° (S) 14:19:15 437.500
BEESAT 3 05 Dec 14:15:11 14:18:59 42° 57° (ENE) 14:22:46 437.485
ITAMSAT 1 05 Dec 14:17:44 14:22:41 46° 72° (ENE) 14:27:40 435.822/435.867
JUGNU 05 Dec 14:23:58 14:27:29 16° 185° (S) 14:31:00 437.505
BEESAT 2 05 Dec 14:42:39 14:46:27 38° 56° (NE) 14:50:12 435.950
MOZHAYETS 4 05 Dec 14:54:15 14:56:21 13° 92° (E) 14:58:27
SWISSCUBE 05 Dec 15:12:51 15:17:35 73° 285° (WNW) 15:22:18 437.505
AUBIESAT-1 05 Dec 15:16:57 15:21:33 83° 288° (WNW) 15:25:56 437.475
BEESAT 05 Dec 15:16:58 15:21:43 74° 285° (WNW) 15:26:27 436.000
RS-15 05 Dec 15:26:57 15:37:52 34° 42° (NE) 15:48:28 29.354- 29.394
M-CUBED/EXP-1 PRIME 05 Dec 15:28:39 15:33:11 50° 291° (WNW) 15:37:30 437.505
KKS-1 05 Dec 15:30:00 15:31:53 12° 92° (E) 15:33:46 437.445
HORYU 2 05 Dec 15:41:38 15:42:01 10° 63° (ENE) 15:42:25 437.375
AO-7 05 Dec 15:42:47 15:50:54 59° 257° (WSW) 15:59:07 29.400- 29.500
ITUPSAT 1 05 Dec 15:44:26 15:48:50 38° 289° (WNW) 15:53:13 437.325
O/OREOS (USA 219) 05 Dec 15:51:45 15:56:05 43° 105° (ESE) 16:00:24 437.305
BEESAT 3 05 Dec 15:54:20 15:56:12 13° 251° (WSW) 15:58:05 437.485
ISS 05 Dec 15:58:34 16:01:41 42° 133° (SE) 16:04:48 145.825
ITAMSAT 1 05 Dec 15:58:48 16:02:20 18° 266° (W) 16:05:53 435.822/435.867
SRMSAT 05 Dec 16:01:13 16:04:52 17° 180° (S) 16:08:32 437.500
GOMX 1 05 Dec 16:10:16 16:10:50 10° 62° (ENE) 16:11:24 467.674
JUGNU 05 Dec 16:15:10 16:15:42 10° 195° (SSW) 16:16:15 437.505
BEESAT 2 05 Dec 16:21:34 16:23:53 15° 251° (WSW) 16:26:13 435.950
BRITE-PL 05 Dec 16:27:10 16:31:06 39° 72° (ENE) 16:35:17 437.365/2234.400
MOZHAYETS 4 05 Dec 16:29:21 16:33:45 49° 286° (WNW) 16:38:08
CUBESAT XI-V 05 Dec 16:30:48 16:34:20 21° 95° (E) 16:37:52 437.345
LilacSat-2 05 Dec 16:51:31 16:53:25 13° 68° (ENE) 16:55:20 437.200
AIST 2 05 Dec 17:03:54 17:07:42 31° 54° (NE) 17:11:28 435.215
KKS-1 05 Dec 17:04:21 17:08:41 50° 286° (WNW) 17:13:00 437.445
STARS 05 Dec 17:11:59 17:16:26 87° 102° (ESE) 17:20:50 437.465
HORYU 2 05 Dec 17:13:29 17:17:57 69° 258° (WSW) 17:22:26 437.375
CUTE-I 05 Dec 17:26:14 17:31:16 43° 71° (ENE) 17:36:19 437.470
NOAA 18 05 Dec 17:30:28 17:35:15 31° 68° (ENE) 17:40:04 137.9125
O/OREOS (USA 219) 05 Dec 17:32:48 17:35:40 16° 301° (WNW) 17:38:33 437.305
ISS 05 Dec 17:35:50 17:38:18 19° 329° (NNW) 17:40:47 145.825
RS-15 05 Dec 17:39:16 17:51:35 76° 245° (WSW) 18:03:23 29.354- 29.394
Cosmos 2491 05 Dec 17:40:04 17:47:56 36° 75° (ENE) 17:55:43 435.465 / 435.565
GOMX 1 05 Dec 17:43:40 17:48:06 72° 258° (WSW) 17:52:55 467.674
CINEMA 3 05 Dec 17:45:48 17:47:40 12° 63° (ENE) 17:49:32 145.822/145.860
SRMSAT 05 Dec 17:50:31 17:53:16 13° 190° (S) 17:56:01 437.500
NOAA 15 05 Dec 17:50:50 17:56:04 83° 76° (ENE) 18:01:20 137.62
Cubesat XI-IV 05 Dec 17:51:36 17:56:57 75° 75° (ENE) 18:02:21 437.490
DOVE 4 05 Dec 17:56:54 18:01:32 63° 75° (ENE) 18:06:29 437.250
YUBILEINY 05 Dec 18:05:43 18:12:02 23° 82° (E) 18:18:23 435.215
BRITE-PL 05 Dec 18:07:32 18:09:51 14° 269° (W) 18:12:14 437.365/2234.400
CUBESAT XI-V 05 Dec 18:07:34 18:11:42 32° 289° (WNW) 18:15:51 437.345
CANX-2 05 Dec 18:20:36 18:23:11 16° 68° (ENE) 18:25:45 2200.000
LilacSat-2 05 Dec 18:23:48 18:27:22 35° 262° (W) 18:30:56 437.200
HO-68 05 Dec 18:40:14 18:46:53 43° 67° (ENE) 18:53:33 435.675
AIST 2 05 Dec 18:42:48 18:45:57 20° 250° (WSW) 18:49:05 435.215
SEEDS 05 Dec 18:46:54 18:49:46 18° 69° (ENE) 18:52:36 437.485
COMPASS 1 05 Dec 18:58:44 19:01:17 16° 68° (ENE) 19:03:50 437.405
AIST 1 05 Dec 19:05:43 19:08:09 15° 86° (E) 19:10:38
CUTE-I 05 Dec 19:07:28 19:11:26 21° 266° (W) 19:15:24 437.470
NOAA 18 05 Dec 19:10:58 19:15:48 31° 263° (W) 19:20:41 137.9125
CINEMA 3 05 Dec 19:19:13 19:24:05 71° 259° (W) 19:29:06 145.822/145.860
SO-50 05 Dec 19:26:32 19:30:26 25° 111° (ESE) 19:34:17 436.795
Cosmos 2504 05 Dec 19:31:30 19:39:04 42° 87° (E) 19:47:05 435.465 / 435.565
ZACube-1 05 Dec 19:32:59 19:35:34 15° 67° (ENE) 19:38:09 437.345
Cubesat XI-IV 05 Dec 19:35:53 19:37:30 11° 269° (W) 19:39:07 437.490
CUTE 1.7 + AOD 2 05 Dec 19:36:32 19:40:44 72° 259° (W) 19:44:56 437.475
Cosmos 2491 05 Dec 19:36:44 19:44:46 44° 272° (W) 19:52:48 435.465 / 435.565
DOVE 4 05 Dec 19:38:09 19:39:42 11° 271° (W) 19:41:16 437.250
FUNcube-1 05 Dec 19:40:39 19:43:33 17° 68° (ENE) 19:46:24 145.935
CUBEBUG 2 05 Dec 19:41:03 19:45:38 49° 74° (ENE) 19:50:12 437.445
STRAND 1 05 Dec 19:53:43 19:58:51 85° 284° (WNW) 20:03:55 437.568
CANX-2 05 Dec 19:54:49 19:58:43 36° 262° (W) 20:02:37 2200.000
RS-15 05 Dec 19:56:03 20:01:50 15° 264° (W) 20:07:33 29.354- 29.394
YUBILEINY 05 Dec 19:59:23 20:07:59 65° 279° (W) 20:16:41 435.215
AAUSAT CUBESAT 2 05 Dec 20:02:37 20:06:42 74° 77° (ENE) 20:10:48 437.432
Oscar 11 05 Dec 20:10:51 20:14:43 33° 72° (ENE) 20:18:35 145.826/435.025
SEEDS 05 Dec 20:21:31 20:25:11 30° 263° (W) 20:28:54 437.485
UWE-3 05 Dec 20:24:30 20:29:11 85° 255° (WSW) 20:33:50 435.000/436.395/437.385
HO-68 05 Dec 20:28:24 20:34:37 32° 263° (W) 20:40:55 435.675
COMPASS 1 05 Dec 20:32:47 20:36:32 34° 263° (W) 20:40:17 437.405
CUSAT 1 05 Dec 20:33:36 20:37:20 53° 82° (E) 20:42:14 437.405
AIST 1 05 Dec 20:41:26 20:45:23 35° 281° (WNW) 20:49:22
PCSat 05 Dec 21:02:17 21:07:38 58° 61° (ENE) 21:12:57 145.827
HUMSAT D 05 Dec 21:04:07 21:07:30 24° 71° (ENE) 21:10:52 437.325/437.525
DELFI C3 05 Dec 21:05:34 21:09:19 47° 75° (ENE) 21:13:06 145.870
SO-50 05 Dec 21:06:26 21:10:44 33° 306° (NW) 21:15:01 436.795
ZACube-1 05 Dec 21:07:03 21:11:26 46° 261° (W) 21:15:48 437.345
PRISM 05 Dec 21:11:44 21:15:40 40° 99° (E) 21:19:36 437.425
FUNcube-1 05 Dec 21:15:09 21:19:26 40° 262° (W) 21:23:41 145.935
DANDE 05 Dec 21:15:50 21:18:25 28° 81° (E) 21:21:30 436.750
CUBEBUG 2 05 Dec 21:19:51 21:22:26 15° 268° (W) 21:25:03 437.445
Cosmos 2504 05 Dec 21:24:53 21:32:25 38° 286° (WNW) 21:40:24 435.465 / 435.565
UNISAT 6 05 Dec 21:37:21 21:40:05 16° 93° (E) 21:42:45 437.425
Oscar 11 05 Dec 21:47:59 21:50:53 18° 266° (W) 21:53:49 145.826/435.025
TIGRISAT 05 Dec 22:06:29 22:10:26 33° 97° (E) 22:14:17 435.000
ANTELSAT 05 Dec 22:07:45 22:11:48 36° 98° (E) 22:15:45 437.575/2403.000
ESTCUBE 1 05 Dec 22:11:07 22:14:19 20° 68° (ENE) 22:17:31 437.505/2401.250
AISAT 05 Dec 22:22:01 22:22:43 10° 64° (ENE) 22:23:25 437.250
ISS 05 Dec 22:29:16 22:31:39 18° 30° (NNE) 22:34:01 145.825
HUMSAT D 05 Dec 22:39:35 22:42:59 23° 264° (W) 22:46:22 437.325/437.525
CUBEBUG 1 05 Dec 22:45:46 22:49:27 28° 70° (ENE) 22:53:09 437.445
PCSat 05 Dec 22:47:16 22:50:28 16° 256° (WSW) 22:53:41 145.827
PRISM 05 Dec 22:48:21 22:50:35 14° 293° (WNW) 22:52:47 437.425
VELOX 1 05 Dec 22:55:48 22:59:20 24° 69° (ENE) 23:02:54 145.980
POPSAT HIP 1 05 Dec 23:01:04 23:03:08 13° 93° (E) 23:05:12 437.405
DX 1 05 Dec 23:10:51 23:13:53 19° 68° (ENE) 23:16:56 434.975-435.025
UNISAT 6 05 Dec 23:12:53 23:16:54 36° 288° (WNW) 23:20:50 437.425
UKube-1 05 Dec 23:18:57 23:21:43 17° 67° (ENE) 23:24:31 .
SPROUT 05 Dec 23:30:57 23:34:54 38° 73° (ENE) 23:38:55 437.525
JAS-2 05 Dec 23:38:21 23:43:30 59° 102° (ESE) 23:48:56 435.910
BUGSAT 1 05 Dec 23:41:36 23:43:15 12° 92° (E) 23:44:52 437.445
TIGRISAT 05 Dec 23:43:50 23:46:50 18° 292° (WNW) 23:49:47 435.000
ANTELSAT 05 Dec 23:45:23 23:48:10 17° 293° (WNW) 23:50:55 437.575/2403.000
ESTCUBE 1 05 Dec 23:46:50 23:50:52 33° 263° (W) 23:54:55 437.505/2401.250
NANOSAT C BR1 05 Dec 23:54:11 23:58:21 57° 100° (E) 00:02:29 145.865
AISAT 05 Dec 23:54:12 23:58:34 65° 259° (W) 00:02:59 437.250
QB50P2 05 Dec 23:59:40 00:03:56 80° 102° (ESE) 00:08:08 145.880/145.840
POLYITAN 1 06 Dec 00:00:14 00:04:28 75° 101° (E) 00:08:39 437.675
50 SAT 06 Dec 00:04:11 00:07:37 52° 260° (W) 00:11:03 437.505
ISS 06 Dec 00:05:07 00:08:19 48° 226° (SW) 00:11:30 145.825
QB50P1 06 Dec 00:13:23 00:17:37 75° 285° (WNW) 00:21:49 145.935-145.965
DUCHIFAT 1 06 Dec 00:16:32 00:20:45 82° 285° (WNW) 00:24:56 145.980
CUBEBUG 1 06 Dec 00:22:19 00:25:40 22° 265° (W) 00:29:03 437.445
Cosmos 2499 06 Dec 00:24:23 00:32:25 50° 89° (E) 00:40:51 435.465 / 435.565
Oscar 19 06 Dec 00:29:50 00:30:48 10° 91° (E) 00:31:44 437.125/150
VELOX 1 06 Dec 00:32:01 00:35:40 25° 264° (W) 00:39:21 145.980
POPSAT HIP 1 06 Dec 00:35:05 00:39:05 41° 287° (WNW) 00:43:02 437.405
GONETS M04 06 Dec 00:36:50 00:45:14 55° 90° (E) 00:53:36
PHONESAT 2.4 06 Dec 00:38:41 00:41:20 72° 157° (SSE) 00:43:59 2401.200-2431.200
M-CUBED/EXP-1 PRIME 06 Dec 00:40:34 00:41:39 11° 58° (ENE) 00:42:47 437.505
DX 1 06 Dec 00:45:54 00:49:48 32° 262° (W) 00:53:45 434.975-435.025
UKube-1 06 Dec 00:53:29 00:57:26 36° 261° (W) 01:01:26 .
TISAT 1 06 Dec 00:53:37 00:57:45 53° 74° (ENE) 01:01:53 437.305
SPROUT 06 Dec 01:08:24 01:10:56 15° 267° (W) 01:13:29 437.525
AO-85 06 Dec 01:09:57 01:13:45 22° 111° (ESE) 01:17:23 145.980
ITUPSAT 1 06 Dec 01:12:05 01:15:03 17° 66° (ENE) 01:18:01 437.325
BUGSAT 1 06 Dec 01:14:49 01:18:49 44° 287° (WNW) 01:22:45 437.445
JAS-2 06 Dec 01:25:28 01:28:09 14° 296° (WNW) 01:30:52 435.910
NANOSAT C BR1 06 Dec 01:32:41 01:33:32 11° 295° (WNW) 01:34:23 145.865
AUBIESAT-1 06 Dec 01:59:19 02:03:20 72° 71° (ENE) 02:07:42 437.475
Gurwin Techsat 1B 06 Dec 01:59:46 02:04:52 46° 99° (E) 02:09:57 435.225
O/OREOS (USA 219) 06 Dec 02:04:33 02:08:55 50° 67° (ENE) 02:13:15 437.305
Oscar 19 06 Dec 02:05:23 02:10:35 75° 285° (WNW) 02:15:45 437.125/150
M-CUBED/EXP-1 PRIME 06 Dec 02:11:30 02:15:26 63° 255° (WSW) 02:19:45 437.505
PHONESAT 2.4 06 Dec 02:14:18 02:16:44 30° 352° (N) 02:19:07 2401.200-2431.200
SWISSCUBE 06 Dec 02:16:01 02:20:48 89° 257° (WSW) 02:25:36 437.505
Cosmos 2499 06 Dec 02:18:21 02:25:46 33° 287° (WNW) 02:33:31 435.465 / 435.565
BEESAT 06 Dec 02:20:05 02:24:52 90° 77° (ENE) 02:29:40 436.000
TISAT 1 06 Dec 02:32:46 02:33:39 11° 268° (W) 02:34:31 437.305
ITAMSAT 1 06 Dec 02:34:21 02:38:09 20° 95° (E) 02:41:55 435.822/435.867
GONETS M04 06 Dec 02:35:07 02:42:22 29° 288° (WNW) 02:49:39
